Location: Unspecified
(51.0000°N, 12.0000°E)
Time: 00:10:16
(UTC+01:00)

ISS - Pass Details

Date: 26 November 2020
Orbit: 418 x 419 km, 51.6° (Epoch: 18 January)

Event Time Altitude Azimuth Distance (km) Brightness Sun altitude
Rises 17:59:27 0° 250° (WSW) 2,364 1.9 -16.2°
Reaches altitude 10° 18:01:33 10° 249° (WSW) 1,500 0.4 -16.6°
Maximum altitude 18:04:55 76° 164° (SSE) 438 -3.8 -17.1°
Enters shadow 18:05:41 49° 92° (E) 547 -3.6 -17.2°
